Starlink 31040

operational
NORAD ID: 58722 Int'l Des: 2024-002 Owner: SPXS Country: US Constellation: starlink
LEOCIRCULAR

Über Starlink 31040

Beschreibung wird geladen...

Live-Position

3D-Globus wird geladen...

Nächste Überflüge

Höhenverlauf

Altitude vs Time

uPlot chart will show altitude changes over time

Zweizeiliger Elementsatz

1 58722U 24002T 25304.62499543 -.00003579 00000-0 -10891-3 0 9996
2 58722 53.1589 109.5133 0000897 89.2897 270.8207 15.30165322102250
Epoch: 31. Okt. 2025 • Age: 8 hours

Aktueller Status

Höhe 478.4 km
Geschwindigkeit 7.63 km/s
Subsatellitenpunkt 40.15°N, 142.39°W
Startdatum 3. Jan. 2024
Alter 1.8 years
Typ internet

Technische Details

Klassifizierung Payload
Masse 730.00 kg
Trockenmasse 700.00 kg
Gesamtmasse 730.00 kg
Länge 0.30 m
Durchmesser 4.10 m
Spannweite 29.00 m
Form Box + pan
Hersteller SPXS
Bus-Typ Starlink V2M
Phasenstatus In Orbit
Besitzer/Staat SPXS/US

Große Konstellationen

Loading constellations...